�������l�o���
Date,Time,MP-1(��Sv/h),MP-2(��Sv/h),MP-3(��Sv/h),MP-4(��Sv/h),MP-5(��Sv/h),MP-6(��Sv/h),MP-7(��Sv/h),MP-8(��Sv/h),����,����(m/s),���J
2021/12/02,00:00,0.571,0.850,0.544,1.046,0.713,0.350,0.607,0.576,���k��,6.3,��
2021/12/02,00:10,0.572,0.851,0.544,1.048,0.714,0.349,0.607,0.576,��,6.3,��
2021/12/02,00:20,0.571,0.850,0.544,1.047,0.716,0.349,0.608,0.577,���k��,6.4,��
2021/12/02,00:30,0.571,0.850,0.543,1.047,0.714,0.350,0.608,0.577,���k��,8.6,��
2021/12/02,00:40,0.573,0.852,0.543,1.047,0.715,0.349,0.609,0.577,��,7.0,��
2021/12/02,00:50,0.572,0.851,0.544,1.048,0.712,0.350,0.607,0.576,��,6.7,��
2021/12/02,01:00,0.572,0.851,0.543,1.048,0.715,0.348,0.606,0.577,���k��,5.3,��
2021/12/02,01:10,0.571,0.851,0.545,1.046,0.714,0.349,0.607,0.577,���k��,4.7,��
2021/12/02,01:20,0.571,0.849,0.544,1.049,0.714,0.350,0.606,0.576,���k��,5.1,��
2021/12/02,01:30,0.571,0.851,0.543,1.048,0.715,0.350,0.607,0.578,��,8.2,��
2021/12/02,01:40,0.571,0.850,0.544,1.048,0.714,0.349,0.608,0.577,���k��,8.1,��
2021/12/02,01:50,0.572,0.852,0.544,1.049,0.715,0.349,0.607,0.575,��,6.5,��
2021/12/02,02:00,0.572,0.851,0.544,1.048,0.715,0.350,0.607,0.576,���k��,4.4,��
2021/12/02,02:10,0.572,0.850,0.543,1.046,0.716,0.349,0.606,0.576,��,4.8,��
2021/12/02,02:20,0.572,0.851,0.544,1.046,0.716,0.348,0.608,0.576,��,7.2,��
2021/12/02,02:30,0.572,0.850,0.543,1.046,0.717,0.350,0.609,0.575,��,6.0,��
2021/12/02,02:40,0.572,0.850,0.543,1.048,0.714,0.349,0.607,0.576,��,5.1,��
2021/12/02,02:50,0.571,0.851,0.542,1.048,0.716,0.348,0.606,0.577,��,5.4,��
2021/12/02,03:00,0.570,0.852,0.541,1.047,0.716,0.349,0.606,0.576,��,4.1,��
2021/12/02,03:10,0.572,0.850,0.543,1.049,0.717,0.349,0.608,0.576,��,6.1,��
2021/12/02,03:20,0.570,0.850,0.543,1.047,0.715,0.349,0.606,0.574,��,4.3,��
2021/12/02,03:30,0.571,0.851,0.542,1.046,0.716,0.350,0.606,0.575,��,6.2,�L
2021/12/02,03:40,0.569,0.851,0.544,1.047,0.716,0.349,0.607,0.575,��,6.7,��
2021/12/02,03:50,0.572,0.849,0.542,1.048,0.716,0.349,0.607,0.575,��,6.2,��
2021/12/02,04:00,0.571,0.849,0.542,1.049,0.716,0.348,0.608,0.575,��,5.0,��
2021/12/02,04:10,0.570,0.850,0.542,1.047,0.716,0.348,0.606,0.575,���k��,4.3,��
2021/12/02,04:20,0.569,0.851,0.543,1.048,0.715,0.348,0.607,0.575,��,5.0,��
2021/12/02,04:30,0.570,0.852,0.541,1.047,0.716,0.349,0.608,0.574,���쐼,4.3,��
2021/12/02,04:40,0.571,0.849,0.544,1.047,0.715,0.348,0.606,0.574,��,7.0,�L
2021/12/02,04:50,0.571,0.848,0.542,1.047,0.719,0.349,0.607,0.575,���쐼,6.6,��
2021/12/02,05:00,0.570,0.851,0.543,1.047,0.717,0.349,0.610,0.576,��,8.9,��
2021/12/02,05:10,0.570,0.851,0.542,1.046,0.717,0.349,0.608,0.574,���쐼,7.4,��
2021/12/02,05:20,0.570,0.852,0.543,1.047,0.716,0.348,0.607,0.573,��,9.1,��
2021/12/02,05:30,0.572,0.851,0.543,1.048,0.718,0.350,0.607,0.573,���쐼,7.2,��
2021/12/02,05:40,0.570,0.851,0.542,1.047,0.717,0.349,0.608,0.575,���쐼,6.4,��
2021/12/02,05:50,0.569,0.850,0.543,1.048,0.719,0.349,0.607,0.574,���쐼,8.4,��
2021/12/02,06:00,0.568,0.850,0.543,1.050,0.717,0.348,0.606,0.575,���쐼,6.5,��
2021/12/02,06:10,0.570,0.853,0.541,1.046,0.719,0.348,0.607,0.574,���쐼,4.5,��
2021/12/02,06:20,0.568,0.851,0.542,1.048,0.718,0.348,0.607,0.574,��,6.3,��
2021/12/02,06:30,0.570,0.852,0.543,1.048,0.717,0.349,0.609,0.574,���쐼,6.9,��
2021/12/02,06:40,0.570,0.852,0.543,1.045,0.718,0.350,0.607,0.574,��,5.9,��
2021/12/02,06:50,0.570,0.847,0.543,1.046,0.717,0.347,0.607,0.574,��,5.1,��
2021/12/02,07:00,0.569,0.851,0.542,1.049,0.717,0.347,0.606,0.574,��,4.5,��
2021/12/02,07:10,0.571,0.852,0.543,1.048,0.718,0.349,0.608,0.575,��,4.1,��
2021/12/02,07:20,0.570,0.851,0.541,1.048,0.719,0.349,0.607,0.575,��,3.6,��
2021/12/02,07:30,0.572,0.850,0.543,1.048,0.716,0.348,0.607,0.575,���k��,3.6,�L
2021/12/02,07:40,0.572,0.851,0.542,1.047,0.720,0.348,0.606,0.575,���k��,2.3,��
2021/12/02,07:50,0.570,0.851,0.541,1.047,0.718,0.347,0.609,0.573,���k��,1.7,��
2021/12/02,08:00,0.571,0.853,0.542,1.047,0.717,0.347,0.607,0.574,���쐼,1.4,��
2021/12/02,08:10,0.570,0.854,0.542,1.049,0.720,0.348,0.608,0.574,���k��,1.9,��
2021/12/02,08:20,0.571,0.849,0.545,1.048,0.717,0.348,0.607,0.574,�쐼,1.5,��
2021/12/02,08:30,0.571,0.849,0.543,1.048,0.719,0.347,0.606,0.575,��,0.9,��
2021/12/02,08:40,0.570,0.852,0.542,1.047,0.720,0.348,0.607,0.575,�k,2.0,��
2021/12/02,08:50,0.571,0.850,0.542,1.050,0.719,0.349,0.610,0.574,�k,2.3,��
2021/12/02,09:00,0.571,0.851,0.541,1.049,0.722,0.348,0.608,0.574,�k��,2.6,��
2021/12/02,09:10,0.570,0.851,0.540,1.047,0.719,0.348,0.606,0.574,���k��,2.0,��
2021/12/02,09:20,0.571,0.851,0.543,1.046,0.719,0.347,0.608,0.575,�k�k��,0.6,��
2021/12/02,09:30,0.572,0.850,0.542,1.049,0.721,0.348,0.606,0.573,��,4.2,��
2021/12/02,09:40,0.571,0.849,0.544,1.047,0.720,0.348,0.606,0.574,��,5.8,��
2021/12/02,09:50,0.572,0.849,0.545,1.048,0.721,0.349,0.607,0.574,��,5.9,��
2021/12/02,10:00,0.573,0.850,0.542,1.048,0.720,0.349,0.606,0.573,��,6.5,��
2021/12/02,10:10,0.573,0.848,0.541,1.047,0.720,0.348,0.605,0.574,��,7.7,��
2021/12/02,10:20,0.572,0.851,0.541,1.050,0.721,0.346,0.606,0.573,��,6.3,��
2021/12/02,10:30,0.570,0.849,0.543,1.048,0.721,0.349,0.606,0.576,��,7.9,��
2021/12/02,10:40,0.571,0.850,0.544,1.049,0.722,0.348,0.604,0.573,��,8.0,��
2021/12/02,10:50,0.571,0.849,0.544,1.048,0.721,0.348,0.606,0.574,��,9.3,��
2021/12/02,11:00,-,0.849,0.542,1.049,0.722,0.346,0.606,0.575,��,6.1,��
2021/12/02,11:10,-,0.849,0.544,1.049,0.724,0.349,0.605,0.575,��,5.4,��
2021/12/02,11:20,-,0.851,0.545,1.049,0.724,0.348,0.607,0.574,��,3.9,��
2021/12/02,11:30,-,0.849,0.543,1.049,0.724,0.349,0.608,0.575,���k��,6.9,��
2021/12/02,11:40,-,0.855,0.544,1.050,0.723,0.350,0.608,0.575,�k��,5.7,��
2021/12/02,11:50,-,0.851,0.545,1.049,0.725,0.350,0.607,0.576,�k�k��,4.0,��
2021/12/02,12:00,-,0.853,0.544,1.052,0.725,0.350,0.607,0.577,�k��,2.6,��
2021/12/02,12:10,-,0.851,0.545,1.051,0.726,0.349,0.608,0.576,��,3.7,��
2021/12/02,12:20,-,0.852,0.546,1.052,0.725,0.349,0.605,0.577,��,5.0,��
2021/12/02,12:30,-,0.850,0.545,1.049,0.724,0.349,0.607,0.576,��,8.7,��
2021/12/02,12:40,-,0.854,0.546,1.051,0.725,0.350,0.607,0.577,���k��,7.4,��
2021/12/02,12:50,0.572,0.853,0.546,1.050,0.725,0.349,0.608,0.577,��,6.2,��
2021/12/02,13:00,0.573,0.852,0.546,1.051,0.725,0.350,0.608,0.575,��,8.1,��
2021/12/02,13:10,0.572,0.853,0.546,1.052,0.726,0.350,0.609,0.576,�k��,4.9,��
2021/12/02,13:20,0.574,0.854,0.546,1.051,0.725,0.351,0.608,0.577,�k��,2.0,��
2021/12/02,13:30,0.575,0.855,0.545,1.051,0.727,0.349,0.610,0.573,�k�k��,2.8,��
2021/12/02,13:40,0.574,0.852,0.546,1.053,0.725,0.350,0.609,0.572,�k,2.5,��
2021/12/02,13:50,0.574,0.851,0.544,1.052,0.725,0.349,0.610,0.574,�k�k��,1.7,��
2021/12/02,14:00,0.575,0.853,0.545,1.050,0.725,0.349,0.610,0.574,���k��,2.0,��
2021/12/02,14:10,0.576,0.853,0.546,1.052,0.725,0.348,0.610,0.575,���k��,3.3,��
2021/12/02,14:20,0.575,0.851,0.548,1.051,0.726,0.350,0.609,0.574,��,3.4,��
2021/12/02,14:30,0.575,0.854,0.545,1.052,0.726,0.349,0.610,0.576,�쓌,1.4,��
2021/12/02,14:40,0.574,0.852,0.546,1.050,0.726,0.348,0.609,0.575,��쓌,1.7,��
2021/12/02,14:50,0.574,0.854,0.547,1.051,0.726,0.349,0.610,0.577,���쐼,0.6,��
2021/12/02,15:00,0.575,0.856,0.547,1.051,0.726,0.350,0.610,0.576,�k��,3.6,��
2021/12/02,15:10,0.574,0.858,0.546,1.050,0.727,0.350,0.610,0.576,���k��,3.6,��
2021/12/02,15:20,0.574,0.857,0.546,1.051,0.727,0.350,0.610,0.576,���k��,3.0,��
2021/12/02,15:30,0.573,0.858,0.546,1.052,0.725,0.349,0.610,0.574,���k��,5.6,��
2021/12/02,15:40,0.572,0.857,0.545,1.052,0.726,0.349,0.609,0.576,��,7.0,��
2021/12/02,15:50,0.574,0.858,0.546,1.052,0.726,0.350,0.609,0.576,��,6.5,��
2021/12/02,16:00,0.574,0.858,0.545,1.053,0.724,0.349,0.608,0.576,��,7.4,��
2021/12/02,16:10,0.575,0.858,0.546,1.051,0.725,0.349,0.609,0.577,���쐼,6.9,��
2021/12/02,16:20,0.576,0.858,0.544,1.051,0.728,0.350,0.608,0.576,���쐼,7.3,��
2021/12/02,16:30,0.576,0.858,0.546,1.052,0.728,0.349,0.608,0.576,���쐼,6.8,��
2021/12/02,16:40,0.574,0.857,0.545,1.050,0.727,0.349,0.609,0.576,���쐼,6.8,��
2021/12/02,16:50,0.573,0.858,0.545,1.052,0.725,0.350,0.609,0.575,���쐼,7.6,��
2021/12/02,17:00,0.572,0.857,0.546,1.051,0.725,0.349,0.610,0.576,���쐼,5.7,��
2021/12/02,17:10,0.575,0.858,0.547,1.050,0.727,0.349,0.608,0.576,��,6.0,��
2021/12/02,17:20,0.574,0.858,0.545,1.054,0.726,0.349,0.609,0.575,��,6.7,��
2021/12/02,17:30,0.575,0.857,0.546,1.053,0.728,0.350,0.608,0.577,���k��,7.7,��
2021/12/02,17:40,0.575,0.859,0.544,1.051,0.727,0.350,0.608,0.575,��,6.5,��
2021/12/02,17:50,0.576,0.856,0.544,1.052,0.727,0.348,0.609,0.578,��,7.3,��
2021/12/02,18:00,0.576,0.856,0.544,1.052,0.727,0.349,0.608,0.576,��,8.5,��
2021/12/02,18:10,0.575,0.859,0.546,1.052,0.724,0.350,0.609,0.575,��,6.5,��
2021/12/02,18:20,0.576,0.857,0.545,1.053,0.728,0.348,0.608,0.577,��,6.2,��
2021/12/02,18:30,0.576,0.858,0.547,1.053,0.727,0.349,0.607,0.575,��,5.0,��
2021/12/02,18:40,0.576,0.856,0.546,1.052,0.725,0.349,0.607,0.575,��,5.9,��
2021/12/02,18:50,0.575,0.856,0.544,1.053,0.727,0.348,0.609,0.575,��,7.4,��
2021/12/02,19:00,0.574,0.857,0.545,1.054,0.727,0.348,0.607,0.575,��,6.1,��
2021/12/02,19:10,0.575,0.856,0.546,1.051,0.728,0.347,0.607,0.575,��,5.2,��
2021/12/02,19:20,0.573,0.857,0.545,1.054,0.727,0.349,0.608,0.576,��,5.0,��
2021/12/02,19:30,0.573,0.858,0.544,1.053,0.727,0.349,0.608,0.576,��,4.0,��
2021/12/02,19:40,0.571,0.856,0.546,1.052,0.727,0.348,0.609,0.576,���쐼,3.3,��
2021/12/02,19:50,0.574,0.856,0.546,1.052,0.728,0.348,0.607,0.577,���쐼,4.0,��
2021/12/02,20:00,0.575,0.858,0.545,1.053,0.728,0.349,0.608,0.576,�쐼,5.1,��
2021/12/02,20:10,0.575,0.858,0.544,1.052,0.729,0.350,0.606,0.575,�쐼,5.5,��
2021/12/02,20:20,0.573,0.859,0.543,1.053,0.728,0.349,0.607,0.577,��쐼,5.4,��
2021/12/02,20:30,0.575,0.855,0.545,1.054,0.727,0.349,0.608,0.574,��쐼,5.5,��
2021/12/02,20:40,0.573,0.857,0.545,1.052,0.728,0.348,0.608,0.574,��,5.2,��
2021/12/02,20:50,0.574,0.858,0.545,1.052,0.728,0.350,0.608,0.575,��,4.1,��
2021/12/02,21:00,0.574,0.860,0.545,1.051,0.727,0.348,0.607,0.576,��,3.8,��
2021/12/02,21:10,0.574,0.857,0.546,1.051,0.728,0.347,0.606,0.576,��,4.1,��
2021/12/02,21:20,0.573,0.857,0.545,1.050,0.728,0.348,0.606,0.575,��쐼,3.6,��
2021/12/02,21:30,0.574,0.857,0.546,1.052,0.728,0.348,0.607,0.575,�쐼,2.0,��
2021/12/02,21:40,0.573,0.858,0.547,1.052,0.729,0.348,0.608,0.576,�쐼,2.2,��
2021/12/02,21:50,0.576,0.856,0.545,1.054,0.728,0.349,0.606,0.574,�쐼,3.4,��
2021/12/02,22:00,0.574,0.856,0.545,1.052,0.728,0.349,0.607,0.575,�쐼,3.2,��
2021/12/02,22:10,0.575,0.857,0.544,1.053,0.728,0.349,0.608,0.576,�쐼,2.5,��
2021/12/02,22:20,0.575,0.858,0.546,1.052,0.726,0.350,0.607,0.574,�쐼,2.0,��
2021/12/02,22:30,0.572,0.858,0.545,1.053,0.730,0.349,0.606,0.576,�쐼,2.6,��
2021/12/02,22:40,0.574,0.858,0.546,1.055,0.728,0.349,0.606,0.575,�쐼,3.5,��
2021/12/02,22:50,0.574,0.855,0.545,1.052,0.728,0.349,0.606,0.574,�쐼,4.3,��
2021/12/02,23:00,0.574,0.858,0.545,1.051,0.731,0.349,0.607,0.574,��쐼,5.0,��
2021/12/02,23:10,0.573,0.857,0.545,1.056,0.728,0.349,0.606,0.575,��,5.4,��
2021/12/02,23:20,0.576,0.858,0.546,1.053,0.728,0.348,0.606,0.574,��쐼,5.1,��
2021/12/02,23:30,0.574,0.859,0.544,1.052,0.726,0.351,0.608,0.574,��쐼,5.4,��
2021/12/02,23:40,0.575,0.858,0.546,1.054,0.728,0.350,0.608,0.574,��쐼,4.8,��
2021/12/02,23:50,0.575,0.857,0.546,1.052,0.731,0.350,0.606,0.576,�쐼,3.9,��
